FW1007 Weather Reports


time (UTC)temp
C
wind
direction
speed
KPH
gust
KPH
rain 1hr
cm
rain 24hr
cm
rain mn
cm
humidity
%
barometer
mb
20260506132528 17 250 4.8 12.9 0.00 0.46 0.28 66 1006.2
20260506132025 17 325 1.6 11.3 0.00 0.46 0.28 66 1006.2
20260506131525 17 238 4.8 9.7 0.00 0.46 0.28 66 1006.2
20260506131025 17 208 3.2 12.9 0.00 0.46 0.28 66 1006.3
20260506130528 17 301 3.2 14.5 0.00 0.46 0.28 67 1006.2
20260506130027 17 245 3.2 12.9 0.00 0.46 0.28 67 1006.2
20260506125524 17 207 4.8 12.9 0.00 0.46 0.28 66 1006.2
20260506125026 17 204 3.2 9.7 0.00 0.46 0.28 68 1006.2
20260506124524 17 223 3.2 9.7 0.00 0.46 0.28 68 1006.2
20260506124024 17 246 4.8 12.9 0.00 0.46 0.28 68 1006.2
20260506123523 17 216 1.6 14.5 0.00 0.46 0.28 68 1006.3
20260506123023 17 231 3.2 11.3 0.00 0.46 0.28 68 1006.3
20260506122523 17 224 4.8 11.3 0.00 0.46 0.28 68 1006.4
20260506122022 17 227 3.2 11.3 0.00 0.46 0.28 68 1006.4
20260506121523 17 195 3.2 14.5 0.00 0.46 0.28 68 1006.4
20260506121022 17 213 8.0 14.5 0.00 0.46 0.28 68 1006.5
20260506120522 17 203 4.8 14.5 0.00 0.46 0.28 67 1006.5
20260506120046 17 264 6.4 12.9 0.00 0.46 0.28 67 1006.4
20260506115525 17 191 6.4 16.1 0.00 0.46 0.28 67 1006.4
20260506115021 17 211 4.8 16.1 0.00 0.46 0.28 67 1006.4
20260506114521 17 228 8.0 16.1 0.00 0.46 0.28 67 1006.4
20260506114021 17 259 4.8 14.5 0.00 0.46 0.28 68 1006.4
20260506113521 17 244 8.0 17.7 0.00 0.46 0.28 67 1006.5
20260506113021 17 196 8.0 17.7 0.00 0.46 0.28 67 1006.4
20260506112521 17 300 4.8 14.5 0.00 0.46 0.28 67 1006.4
20260506112020 17 150 6.4 14.5 0.00 0.46 0.28 68 1006.5
20260506111520 17 217 6.4 12.9 0.00 0.46 0.28 69 1006.5
20260506111020 17 200 6.4 11.3 0.00 0.46 0.28 68 1006.5
20260506110520 17 207 4.8 11.3 0.00 0.46 0.28 70 1006.5
20260506110020 17 264 4.8 14.5 0.00 0.46 0.28 69 1006.5
20260506105524 17 196 3.2 17.7 0.00 0.46 0.28 69 1006.6
20260506105020 17 165 6.4 19.3 0.00 0.46 0.28 68 1006.6
20260506104531 17 234 9.7 19.3 0.00 0.46 0.28 67 1006.5
20260506104024 17 202 4.8 17.7 0.00 0.46 0.28 67 1006.6
20260506103519 18 250 6.4 16.1 0.00 0.46 0.28 67 1006.5
20260506103035 18 223 4.8 16.1 0.00 0.46 0.28 67 1006.5
20260506102520 18 254 4.8 11.3 0.00 0.46 0.28 68 1006.6
20260506102018 18 312 6.4 11.3 0.00 0.46 0.28 67 1006.6
20260506101519 18 243 4.8 17.7 0.00 0.46 0.28 67 1006.6
20260506101018 18 154 4.8 17.7 0.00 0.46 0.28 68 1006.6
20260506100520 18 177 4.8 16.1 0.00 0.46 0.28 68 1006.6
20260506100015 17 248 0.0 16.1 0.00 0.46 0.28 70 1006.5
20260506095513 17 183 8.0 19.3 0.00 0.46 0.28 71 1006.5
20260506095014 17 206 8.0 19.3 0.00 0.46 0.28 72 1006.5
20260506094513 16 209 6.4 12.9 0.00 0.46 0.28 73 1006.5
20260506094012 16 193 6.4 12.9 0.00 0.46 0.28 73 1006.4
20260506093511 16 247 3.2 11.3 0.00 0.46 0.28 74 1006.5
20260506093019 16 288 4.8 11.3 0.00 0.46 0.28 74 1006.5
20260506092511 16 296 3.2 16.1 0.00 0.46 0.28 73 1006.6
20260506092011 16 248 3.2 16.1 0.00 0.46 0.28 72 1006.5
20260506091516 16 221 4.8 17.7 0.00 0.46 0.28 72 1006.6
20260506091011 16 220 8.0 17.7 0.00 0.46 0.28 71 1006.5
20260506090509 17 182 6.4 14.5 0.00 0.46 0.28 73 1006.5
20260506090008 16 21 4.8 14.5 0.00 0.46 0.28 73 1006.6
20260506085507 16 229 6.4 14.5 0.00 0.46 0.28 74 1006.5
20260506085006 16 173 6.4 16.1 0.00 0.46 0.28 75 1006.5
20260506084506 16 202 11.3 17.7 0.00 0.46 0.28 74 1006.6
20260506084010 16 247 6.4 16.1 0.00 0.46 0.28 74 1006.5
20260506083506 16 246 8.0 17.7 0.00 0.46 0.28 74 1006.4
20260506083005 16 222 6.4 16.1 0.00 0.46 0.28 75 1006.4
20260506082505 16 215 6.4 16.1 0.00 0.46 0.28 76 1006.4
20260506082003 16 180 6.4 14.5 0.00 0.46 0.28 76 1006.4
20260506081503 16 219 4.8 14.5 0.00 0.46 0.28 77 1006.4
20260506081005 16 233 4.8 14.5 0.00 0.46 0.28 78 1006.4
20260506080503 16 154 6.4 14.5 0.00 0.46 0.28 78 1006.4
20260506073058 16 178 4.8 16.1 0.00 0.46 0.28 81 1006.5
20260506072557 15 200 8.0 16.1 0.00 0.46 0.28 82 1006.4
20260506072056 15 209 6.4 12.9 0.00 0.46 0.28 83 1006.4
20260506071558 15 198 4.8 11.3 0.00 0.46 0.28 85 1006.4
20260506071052 15 184 4.8 12.9 0.00 0.46 0.28 86 1006.4
20260506070552 15 245 6.4 11.3 0.00 0.46 0.28 87 1006.5
20260506062043 13 187 4.8 11.3 0.00 0.46 0.28 94 1006.4
20260506061542 13 189 4.8 11.3 0.00 0.46 0.28 94 1006.4
20260506061041 13 249 3.2 12.9 0.00 0.46 0.28 95 1006.3
20260506060540 13 170 6.4 14.5 0.00 0.46 0.28 95 1006.4
20260506051031 12 249 1.6 12.9 0.00 0.46 0.28 96 1006.2
20260506050529 12 216 3.2 12.9 0.00 0.46 0.28 96 1006.4
20260506045027 12 202 3.2 9.7 0.00 0.46 0.28 95 1006.4
20260506044535 12 207 3.2 9.7 0.00 0.46 0.28 95 1006.4
20260506044028 12 196 3.2 9.7 0.00 0.46 0.28 95 1006.3
20260506043533 12 208 3.2 9.7 0.00 0.46 0.28 95 1006.3
20260506043025 12 205 3.2 9.7 0.00 0.46 0.28 95 1006.3
20260506042525 12 209 3.2 9.7 0.00 0.46 0.28 95 1006.4
20260506042024 12 177 3.2 8.0 0.00 0.46 0.28 95 1006.4
20260506041524 12 201 4.8 14.5 0.00 0.46 0.28 95 1006.3
20260506041023 12 190 3.2 9.7 0.00 0.46 0.28 95 1006.4
20260506040522 12 197 3.2 9.7 0.00 0.46 0.28 95 1006.3
20260506040027 12 310 4.8 9.7 0.00 0.46 0.28 95 1006.4
20260506035522 12 205 4.8 9.7 0.00 0.46 0.28 95 1006.4
20260506035021 12 194 4.8 9.7 0.03 0.46 0.28 95 1006.4
20260506034521 12 221 4.8 9.7 0.03 0.46 0.28 95 1006.5
20260506034020 12 208 3.2 9.7 0.03 0.46 0.28 95 1006.5
20260506033521 12 204 4.8 9.7 0.03 0.46 0.28 95 1006.5
20260506033019 12 207 3.2 9.7 0.03 0.46 0.28 95 1006.4
20260506032518 12 227 3.2 11.3 0.03 0.46 0.28 95 1006.4
20260506032019 12 192 4.8 11.3 0.03 0.46 0.28 95 1006.5
20260506031518 12 204 3.2 8.0 0.03 0.46 0.28 95 1006.5
20260506031017 12 168 3.2 9.7 0.03 0.46 0.28 95 1006.6
20260506030517 12 210 4.8 8.0 0.03 0.46 0.28 95 1006.5
20260506030016 12 206 3.2 6.4 0.03 0.46 0.28 95 1006.6
20260506025515 12 211 3.2 6.4 0.03 0.46 0.28 95 1006.6
20260506025017 12 211 3.2 6.4 0.00 0.43 0.25 95 1006.6
20260506024515 12 235 3.2 6.4 0.00 0.43 0.25 95 1006.6
20260506024015 12 196 1.6 8.0 0.00 0.43 0.25 95 1006.6
20260506023515 12 232 3.2 8.0 0.00 0.43 0.25 95 1006.6
20260506023020 12 215 1.6 8.0 0.00 0.43 0.25 95 1006.6
20260506022513 12 190 1.6 6.4 0.00 0.43 0.25 95 1006.6
20260506022017 12 189 1.6 6.4 0.00 0.43 0.25 95 1006.6
20260506021516 12 242 3.2 6.4 0.00 0.43 0.25 95 1006.7
20260506021016 12 180 0.0 6.4 0.00 0.43 0.25 95 1006.7
20260506020511 12 207 1.6 6.4 0.00 0.43 0.25 95 1006.9
20260506020013 12 209 3.2 8.0 0.00 0.43 0.25 95 1006.9
20260506015511 12 195 3.2 6.4 0.00 0.43 0.25 95 1006.9
20260506015011 12 167 1.6 11.3 0.00 0.43 0.25 95 1006.8
20260506014513 12 195 3.2 8.0 0.00 0.43 0.25 95 1006.8
20260506014010 12 195 3.2 9.7 0.00 0.43 0.25 95 1006.9
20260506013510 12 194 4.8 9.7 0.00 0.43 0.25 95 1006.9
20260506013013 12 192 3.2 11.3 0.00 0.43 0.25 95 1007.0
20260506012510 12 211 4.8 9.7 0.00 0.43 0.25 95 1006.9
20260506012009 12 239 3.2 9.7 0.00 0.43 0.25 95 1007.0
20260506011509 12 188 4.8 9.7 0.00 0.43 0.25 95 1007.0
20260506011008 12 201 3.2 11.3 0.00 0.43 0.25 95 1007.1
20260506010508 12 207 4.8 11.3 0.00 0.43 0.25 95 1006.9
20260506010012 12 196 3.2 11.3 0.00 0.43 0.25 95 1006.9
20260506005507 12 220 4.8 11.3 0.00 0.43 0.25 95 1007.0
20260506005009 12 205 3.2 9.7 0.00 0.43 0.25 95 1006.9
20260506004506 12 213 3.2 8.0 0.00 0.43 0.25 95 1006.9
20260506004011 13 188 3.2 8.0 0.00 0.43 0.25 95 1006.9
20260506003510 13 213 3.2 9.7 0.00 0.43 0.25 95 1007.0
20260506003004 13 196 4.8 8.0 0.00 0.43 0.25 95 1007.0
20260506002503 13 178 1.6 12.9 0.00 0.43 0.25 95 1007.1
20260506002002 13 185 4.8 11.3 0.00 0.43 0.25 95 1007.0
20260506001501 13 205 4.8 11.3 0.00 0.43 0.25 95 1007.0
20260506001101 13 236 4.8 11.3 0.00 0.43 0.25 95 1007.1
20260506000600 13 182 4.8 11.3 0.03 0.43 0.25 95 1007.1
20260506000101 13 165 3.2 11.3 0.03 0.43 0.25 95 1007.1
20260505235559 13 215 4.8 14.5 0.05 0.43 0.25 95 1007.2
20260505235058 13 211 3.2 14.5 0.05 0.43 0.25 95 1007.2
20260505234557 13 207 4.8 11.3 0.13 0.43 0.25 95 1007.2
20260505234055 13 200 4.8 12.9 0.15 0.43 0.25 95 1007.3
20260505233556 13 192 3.2 12.9 0.15 0.43 0.25 95 1007.3
20260505233053 13 198 3.2 8.0 0.18 0.43 0.25 95 1007.3
20260505232553 13 211 1.6 11.3 0.20 0.43 0.25 95 1007.3
20260505232056 13 172 4.8 11.3 0.23 0.43 0.25 94 1007.3
20260505231606 13 215 4.8 11.3 0.25 0.43 0.25 94 1007.3
20260505231050 13 201 4.8 11.3 0.25 0.43 0.25 94 1007.3
20260505230550 13 142 4.8 9.7 0.23 0.43 0.23 94 1007.4
20260505230049 13 203 0.0 6.4 0.23 0.43 0.23 94 1007.3
20260505225549 13 182 1.6 6.4 0.23 0.41 0.23 94 1007.5
20260505225049 13 228 1.6 6.4 0.20 0.38 0.20 94 1007.5
20260505224548 13 125 0.0 6.4 0.15 0.33 0.15 94 1007.5
20260505224047 13 219 0.0 6.4 0.10 0.28 0.10 94 1007.5
20260505223546 13 167 0.0 4.8 0.10 0.28 0.10 94 1007.5
20260505223046 13 156 0.0 4.8 0.08 0.25 0.08 94 1007.6
20260505222550 13 161 0.0 8.0 0.05 0.23 0.05 94 1007.6
20260505222044 13 217 1.6 8.0 0.03 0.20 0.03 94 1007.7
20260505221543 13 222 3.2 8.0 0.00 0.18 0.00 94 1007.7
20260505221042 13 215 1.6 8.0 0.00 0.18 0.00 94 1007.7
20260505220545 13 157 3.2 8.0 0.00 0.18 0.00 93 1007.7
20260505220045 13 219 0.0 6.4 0.00 0.18 0.00 94 1007.7
20260505215541 14 179 0.0 4.8 0.00 0.18 0.18 94 1007.8
20260505215040 14 209 0.0 4.8 0.00 0.18 0.18 94 1007.8
20260505214552 14 281 0.0 0.0 0.00 0.18 0.18 94 1007.7
20260505214040 14 281 0.0 0.0 0.00 0.18 0.18 94 1007.8
20260505213539 14 281 0.0 0.0 0.00 0.18 0.18 93 1007.8
20260505213041 14 281 0.0 0.0 0.00 0.18 0.18 93 1007.8
20260505212539 14 281 0.0 0.0 0.00 0.18 0.18 93 1007.8
20260505212039 14 281 0.0 0.0 0.00 0.18 0.18 93 1007.8
20260505211539 14 281 0.0 0.0 0.00 0.18 0.18 93 1007.9
20260505211039 14 281 0.0 0.0 0.00 0.18 0.18 93 1007.9
20260505210538 14 281 0.0 0.0 0.00 0.18 0.18 93 1008.0
20260505210038 14 281 0.0 0.0 0.00 0.18 0.18 93 1007.9
20260505205538 14 281 0.0 0.0 0.00 0.18 0.18 93 1008.0
20260505205038 14 281 0.0 0.0 0.00 0.18 0.18 93 1008.0
20260505204538 14 281 0.0 0.0 0.00 0.18 0.18 93 1008.0
20260505204040 14 281 0.0 0.0 0.00 0.18 0.18 93 1008.0
20260505203540 14 281 0.0 0.0 0.03 0.18 0.18 93 1007.9
20260505203053 14 281 0.0 0.0 0.03 0.18 0.18 93 1008.0
20260505202537 14 281 0.0 0.0 0.03 0.18 0.18 92 1007.9
20260505202038 14 281 0.0 0.0 0.03 0.18 0.18 93 1007.9
20260505201542 14 281 0.0 0.0 0.03 0.18 0.18 93 1007.9
20260505201037 14 281 0.0 0.0 0.03 0.18 0.18 92 1007.9
20260505200537 14 281 0.0 0.0 0.03 0.18 0.18 92 1008.0
20260505200046 14 281 0.0 0.0 0.03 0.18 0.18 92 1007.8
20260505195536 14 281 0.0 0.0 0.03 0.18 0.18 92 1007.9
20260505195036 14 281 0.0 0.0 0.03 0.18 0.18 92 1007.8
20260505194538 14 281 0.0 0.0 0.03 0.18 0.18 92 1007.7
20260505194036 14 281 0.0 0.0 0.03 0.18 0.18 92 1007.7
20260505193536 14 281 0.0 0.0 0.00 0.15 0.15 92 1007.7
20260505193036 14 281 0.0 0.0 0.00 0.15 0.15 92 1007.5
20260505192535 14 281 0.0 0.0 0.00 0.15 0.15 92 1007.6
20260505192037 14 281 0.0 0.0 0.00 0.15 0.15 92 1007.6
20260505191535 14 281 0.0 0.0 0.00 0.15 0.15 92 1007.6
20260505191035 14 281 0.0 0.0 0.00 0.15 0.15 92 1007.5
20260505190534 14 281 0.0 0.0 0.00 0.15 0.15 92 1007.5
20260505190036 14 281 0.0 0.0 0.00 0.15 0.15 92 1007.5
20260505185534 14 281 0.0 0.0 0.00 0.15 0.15 92 1007.5
20260505185034 14 281 0.0 0.0 0.00 0.15 0.15 92 1007.5
20260505184537 14 281 0.0 0.0 0.00 0.15 0.15 92 1007.4
20260505184036 14 281 0.0 0.0 0.00 0.15 0.15 91 1007.5
20260505183535 14 281 0.0 0.0 0.00 0.15 0.15 91 1007.4
20260505183033 14 281 0.0 0.0 0.00 0.15 0.15 91 1007.5
20260505182533 15 281 0.0 0.0 0.00 0.15 0.15 91 1007.5
20260505182032 15 281 0.0 0.0 0.00 0.15 0.15 91 1007.5
20260505181538 15 281 0.0 0.0 0.00 0.15 0.15 91 1007.4
20260505181033 15 281 0.0 0.0 0.00 0.15 0.15 91 1007.3
20260505180532 15 281 0.0 0.0 0.00 0.15 0.15 91 1007.3
20260505180032 15 281 0.0 0.0 0.00 0.15 0.15 91 1007.5
20260505175531 15 281 0.0 0.0 0.00 0.15 0.15 91 1007.5
20260505175031 15 281 0.0 0.0 0.00 0.15 0.15 91 1007.6
20260505174539 15 281 0.0 0.0 0.00 0.15 0.15 91 1007.6
20260505174031 15 281 0.0 0.0 0.00 0.15 0.15 91 1007.7
20260505173531 15 281 0.0 0.0 0.00 0.15 0.15 91 1007.7
20260505173029 15 281 0.0 0.0 0.00 0.15 0.15 91 1007.7
20260505172529 15 281 0.0 4.8 0.00 0.15 0.15 91 1007.7
20260505172028 15 281 0.0 4.8 0.00 0.15 0.15 91 1007.7
20260505171529 15 282 0.0 4.8 0.03 0.15 0.15 91 1007.7
20260505171028 15 301 0.0 6.4 0.03 0.15 0.15 91 1007.7
20260505170528 15 279 3.2 6.4 0.03 0.15 0.15 91 1007.7
20260505170029 15 256 0.0 4.8 0.03 0.15 0.15 91 1007.8
20260505165528 15 281 1.6 4.8 0.05 0.15 0.15 91 1007.8
20260505165028 15 284 1.6 4.8 0.05 0.15 0.15 91 1007.8
20260505164528 15 302 0.0 4.8 0.05 0.15 0.15 90 1007.7
20260505164027 15 277 1.6 4.8 0.05 0.15 0.15 90 1007.8
20260505163528 15 219 0.0 1.6 0.05 0.15 0.15 90 1007.8
20260505163032 16 219 0.0 1.6 0.08 0.15 0.15 90 1007.9
20260505162526 16 219 0.0 1.6 0.08 0.15 0.15 90 1007.9
20260505162026 16 219 0.0 1.6 0.10 0.15 0.15 90 1007.9
20260505161526 16 219 0.0 3.2 0.10 0.15 0.15 90 1007.9
20260505161026 16 219 0.0 3.2 0.10 0.15 0.15 89 1007.8
20260505160526 16 276 0.0 3.2 0.13 0.15 0.15 89 1008.0
20260505153024 16 223 3.2 8.0 0.08 0.08 0.08 87 1008.4
20260505152524 16 203 3.2 12.9 0.08 0.08 0.08 86 1008.5
20260505152023 16 209 4.8 12.9 0.05 0.05 0.05 86 1008.4
20260505151523 16 198 3.2 12.9 0.05 0.05 0.05 85 1008.5
20260505151023 16 213 4.8 11.3 0.03 0.03 0.03 84 1008.4
20260505150523 16 203 4.8 11.3 0.03 0.03 0.03 84 1008.3
20260505140521 18 254 3.2 8.0 0.00 0.00 0.00 77 1008.2